User: anonymous   Login
Location: Lourdes
(43.1000°N, 0.0500°W)
Time: 10:44:38
(UTC+00:00)
Language:

MOS 1 Rocket - Orbit

View from above orbital plane
View from above orbital plane
View from above satellite
View from above satellite

Ground track
Ground track

The orbit data is extracted from the following two-line orbital elements,

1 17528U 87018B   21063.51105547  .00000081  00000-0  26995-4 0  9991
2 17528  97.4026 247.9251 0151948   7.6775 352.6698 14.51034173775932
Epoch (UTC): 04 March 2021 12:15:55
Eccentricity: 0.0151948
inclination: 97.4026°
perigee height: 614 km
apogee height: 830 km
right ascension of ascending node: 247.9251°
argument of perigee: 7.6775°
revolutions per day: 14.51034173
mean anomaly at epoch: 352.6698°
orbit number at epoch: 77593

The dashed part of the orbit path shows where the satellite is in the earth's shadow,  

DLR